SB KEPS @ AMSAT $ORB14268.O Orbital Elements 14268.OSCAR
HR AMSAT ORBITAL ELEMENTS FOR OSCAR SATELLITES FROM WA5QGD FORT WORTH,TX September 25, 2014 BID: ORB14268.O TO ALL RADIO AMATEURS BT
Satellite: AO-07 Catalog number: 07530 Epoch time: 14268.54806010 Element set: 80 Inclination: 101.4849 deg RA of node: 247.1161 deg Eccentricity: 0.0012395 Arg of perigee: 098.6665 deg Mean anomaly: 047.1090 deg Mean motion: 12.53607320 rev/day Decay rate: -2.6e-07 rev/day^2 Epoch rev: 82409 Checksum: 277
Satellite: FO-29 Catalog number: 24278 Epoch time: 14267.08639596 Element set: 483 Inclination: 098.5154 deg RA of node: 267.2966 deg Eccentricity: 0.0350993 Arg of perigee: 041.1959 deg Mean anomaly: 359.0942 deg Mean motion: 13.53029655 rev/day Decay rate: 4.0e-08 rev/day^2 Epoch rev: 89404 Checksum: 355
Satellite: SO-33 Catalog number: 25509 Epoch time: 14266.54096763 Element set: 846 Inclination: 031.4345 deg RA of node: 323.0779 deg Eccentricity: 0.0349381 Arg of perigee: 256.1075 deg Mean anomaly: 247.6977 deg Mean motion: 14.29629671 rev/day Decay rate: 6.64e-06 rev/day^2 Epoch rev: 83123 Checksum: 341
Satellite: RS-22 Catalog number: 27939 Epoch time: 14268.54789711 Element set: 893 Inclination: 097.8164 deg RA of node: 077.7602 deg Eccentricity: 0.0013712 Arg of perigee: 145.0093 deg Mean anomaly: 215.2027 deg Mean motion: 14.65344956 rev/day Decay rate: 8.32e-06 rev/day^2 Epoch rev: 58742 Checksum: 332
Satellite: HO-68 Catalog number: 36122 Epoch time: 14268.59045697 Element set: 979 Inclination: 100.2391 deg RA of node: 317.3586 deg Eccentricity: 0.0007587 Arg of perigee: 008.4041 deg Mean anomaly: 351.7201 deg Mean motion: 13.16318248 rev/day Decay rate: -4.3e-07 rev/day^2 Epoch rev: 22964 Checksum: 310
Satellite: AO-73 Catalog number: 39444 Epoch time: 14267.17093747 Element set: 266 Inclination: 097.7612 deg RA of node: 334.4238 deg Eccentricity: 0.0060306 Arg of perigee: 282.1581 deg Mean anomaly: 077.2870 deg Mean motion: 14.78620293 rev/day Decay rate: 1.890e-05 rev/day^2 Epoch rev: 4409 Checksum: 324
Satellite: EO-79 Catalog number: 40025 Epoch time: 14268.45958327 Element set: 286 Inclination: 097.9716 deg RA of node: 163.2665 deg Eccentricity: 0.0013125 Arg of perigee: 337.1042 deg Mean anomaly: 022.9537 deg Mean motion: 14.85489330 rev/day Decay rate: 2.150e-05 rev/day^2 Epoch rev: 1447 Checksum: 313
/EX SB KEPS @ AMSAT $ORB14268.D Orbital Elements 14268.MICROS
HR AMSAT ORBITAL ELEMENTS FOR THE MICROSATS FROM WA5QGD FORT WORTH,TX September 25, 2014 BID: ORB14268.D TO ALL RADIO AMATEURS BT
Satellite: UO-11 Catalog number: 14781 Epoch time: 14267.16967841 Element set: 617 Inclination: 097.8411 deg RA of node: 325.3170 deg Eccentricity: 0.0008294 Arg of perigee: 209.4416 deg Mean anomaly: 150.6331 deg Mean motion: 14.81749954 rev/day Decay rate: 5.96e-06 rev/day^2 Epoch rev: 64262 Checksum: 320
Satellite: AO-16 Catalog number: 20439 Epoch time: 14267.85480447 Element set: 132 Inclination: 098.5129 deg RA of node: 203.3401 deg Eccentricity: 0.0010244 Arg of perigee: 219.4810 deg Mean anomaly: 210.8006 deg Mean motion: 14.32390871 rev/day Decay rate: 1.69e-06 rev/day^2 Epoch rev: 28875 Checksum: 285
Satellite: LO-19 Catalog number: 20442 Epoch time: 14267.32425273 Element set: 68 Inclination: 098.4840 deg RA of node: 203.1751 deg Eccentricity: 0.0011382 Arg of perigee: 209.7013 deg Mean anomaly: 150.3526 deg Mean motion: 14.32590232 rev/day Decay rate: 1.20e-06 rev/day^2 Epoch rev: 28887 Checksum: 272
Satellite: AO-27 Catalog number: 22825 Epoch time: 14267.07661029 Element set: 779 Inclination: 098.6718 deg RA of node: 212.6707 deg Eccentricity: 0.0008470 Arg of perigee: 016.2485 deg Mean anomaly: 042.5553 deg Mean motion: 14.29748501 rev/day Decay rate: 1.22e-06 rev/day^2 Epoch rev: 9491 Checksum: 314
Satellite: IO-26 Catalog number: 22826 Epoch time: 14268.08919061 Element set: 537 Inclination: 098.6660 deg RA of node: 213.8830 deg Eccentricity: 0.0008779 Arg of perigee: 005.4042 deg Mean anomaly: 354.7233 deg Mean motion: 14.30052528 rev/day Decay rate: 1.68e-06 rev/day^2 Epoch rev: 9519 Checksum: 310
Satellite: GO-32 Catalog number: 25397 Epoch time: 14268.19850060 Element set: 459 Inclination: 098.4812 deg RA of node: 222.5115 deg Eccentricity: 0.0001867 Arg of perigee: 059.2723 deg Mean anomaly: 064.6796 deg Mean motion: 14.23463156 rev/day Decay rate: 6.6e-07 rev/day^2 Epoch rev: 84209 Checksum: 318
Satellite: NO-44 Catalog number: 26931 Epoch time: 14267.14190450 Element set: 713 Inclination: 067.0511 deg RA of node: 143.2787 deg Eccentricity: 0.0007338 Arg of perigee: 276.6311 deg Mean anomaly: 083.3955 deg Mean motion: 14.30153595 rev/day Decay rate: 3.9e-07 rev/day^2 Epoch rev: 67775 Checksum: 307
Satellite: SO-50 Catalog number: 27607 Epoch time: 14268.98249338 Element set: 523 Inclination: 064.5569 deg RA of node: 285.0553 deg Eccentricity: 0.0059450 Arg of perigee: 343.5078 deg Mean anomaly: 016.4580 deg Mean motion: 14.73923831 rev/day Decay rate: 9.92e-06 rev/day^2 Epoch rev: 63233 Checksum: 332
Satellite: CO-55 Catalog number: 27844 Epoch time: 14267.02388579 Element set: 32 Inclination: 098.6995 deg RA of node: 274.3777 deg Eccentricity: 0.0009325 Arg of perigee: 356.9888 deg Mean anomaly: 061.3371 deg Mean motion: 14.21562184 rev/day Decay rate: 2.09e-06 rev/day^2 Epoch rev: 58262 Checksum: 350
Satellite: CO-57 Catalog number: 27848 Epoch time: 14266.98066683 Element set: 974 Inclination: 098.7089 deg RA of node: 274.1003 deg Eccentricity: 0.0009363 Arg of perigee: 004.1281 deg Mean anomaly: 056.0657 deg Mean motion: 14.21242019 rev/day Decay rate: 1.77e-06 rev/day^2 Epoch rev: 58253 Checksum: 324
Satellite: AO-51 Catalog number: 28375 Epoch time: 14268.09747289 Element set: 952 Inclination: 098.2599 deg RA of node: 211.6483 deg Eccentricity: 0.0083900 Arg of perigee: 051.1490 deg Mean anomaly: 309.7148 deg Mean motion: 14.41432856 rev/day Decay rate: 3.21e-06 rev/day^2 Epoch rev: 53830 Checksum: 326
Satellite: CP3 Catalog number: 31129 Epoch time: 14268.16964242 Element set: 857 Inclination: 097.9462 deg RA of node: 241.1506 deg Eccentricity: 0.0099306 Arg of perigee: 060.1224 deg Mean anomaly: 001.7179 deg Mean motion: 14.54867083 rev/day Decay rate: 1.452e-05 rev/day^2 Epoch rev: 39457 Checksum: 311
Satellite: CO-65 Catalog number: 32785 Epoch time: 14268.12806995 Element set: 72 Inclination: 097.6881 deg RA of node: 316.0970 deg Eccentricity: 0.0013260 Arg of perigee: 214.2887 deg Mean anomaly: 198.3883 deg Mean motion: 14.85568950 rev/day Decay rate: 1.526e-05 rev/day^2 Epoch rev: 34686 Checksum: 356
Satellite: PRISM Catalog number: 33493 Epoch time: 14268.69654425 Element set: 334 Inclination: 098.2532 deg RA of node: 088.6956 deg Eccentricity: 0.0018595 Arg of perigee: 113.9171 deg Mean anomaly: 246.3991 deg Mean motion: 14.90070451 rev/day Decay rate: 4.537e-05 rev/day^2 Epoch rev: 30714 Checksum: 323
Satellite: SOHLA-1 Catalog number: 33496 Epoch time: 14266.90738733 Element set: 470 Inclination: 098.1820 deg RA of node: 028.1487 deg Eccentricity: 0.0005106 Arg of perigee: 290.3447 deg Mean anomaly: 185.3098 deg Mean motion: 14.70900220 rev/day Decay rate: 4.02e-06 rev/day^2 Epoch rev: 30402 Checksum: 279
Satellite: TISAT-1 Catalog number: 36799 Epoch time: 14268.62522578 Element set: 584 Inclination: 098.0158 deg RA of node: 001.3976 deg Eccentricity: 0.0013258 Arg of perigee: 000.2950 deg Mean anomaly: 359.8259 deg Mean motion: 14.86110553 rev/day Decay rate: 2.843e-05 rev/day^2 Epoch rev: 22763 Checksum: 323
Satellite: STUDSAT Catalog number: 36801 Epoch time: 14267.02295419 Element set: 896 Inclination: 098.0380 deg RA of node: 009.8819 deg Eccentricity: 0.0008186 Arg of perigee: 321.7645 deg Mean anomaly: 092.3716 deg Mean motion: 14.98594318 rev/day Decay rate: 1.3817e-04 rev/day^2 Epoch rev: 22792 Checksum: 336
Satellite: ALMASAT-1 Catalog number: 38078 Epoch time: 14269.03319468 Element set: 164 Inclination: 069.4690 deg RA of node: 175.1115 deg Eccentricity: 0.0577327 Arg of perigee: 257.4889 deg Mean anomaly: 096.1550 deg Mean motion: 14.54957744 rev/day Decay rate: 2.8559e-04 rev/day^2 Epoch rev: 13650 Checksum: 351
Satellite: XATCOBEO Catalog number: 38082 Epoch time: 14243.34478676 Element set: 563 Inclination: 069.3815 deg RA of node: 097.0364 deg Eccentricity: 0.0033293 Arg of perigee: 225.1799 deg Mean anomaly: 135.4582 deg Mean motion: 16.41261006 rev/day Decay rate: 1.3583328e-01 rev/day^2 Epoch rev: 13623 Checksum: 317
Satellite: CUBEBUG-1 Catalog number: 39153 Epoch time: 14268.22688705 Element set: 513 Inclination: 098.0347 deg RA of node: 348.3093 deg Eccentricity: 0.0018540 Arg of perigee: 030.9883 deg Mean anomaly: 329.2404 deg Mean motion: 14.77959071 rev/day Decay rate: 1.647e-05 rev/day^2 Epoch rev: 7633 Checksum: 320
Satellite: ESTCUBE-1 Catalog number: 39161 Epoch time: 14268.61714722 Element set: 511 Inclination: 098.0918 deg RA of node: 348.7568 deg Eccentricity: 0.0011516 Arg of perigee: 077.8881 deg Mean anomaly: 282.3620 deg Mean motion: 14.70190567 rev/day Decay rate: 1.308e-05 rev/day^2 Epoch rev: 7435 Checksum: 311
Satellite: DUCHIFAT-1 Catalog number: 40021 Epoch time: 14267.97915574 Element set: 292 Inclination: 097.9724 deg RA of node: 162.8261 deg Eccentricity: 0.0014499 Arg of perigee: 340.8925 deg Mean anomaly: 019.1735 deg Mean motion: 14.85681756 rev/day Decay rate: 3.117e-05 rev/day^2 Epoch rev: 1439 Checksum: 325
Satellite: NANOSATCBR1 Catalog number: 40024 Epoch time: 14268.45745285 Element set: 283 Inclination: 097.9730 deg RA of node: 163.2683 deg Eccentricity: 0.0012852 Arg of perigee: 337.8368 deg Mean anomaly: 022.2274 deg Mean motion: 14.85554886 rev/day Decay rate: 2.680e-05 rev/day^2 Epoch rev: 1446 Checksum: 317
Satellite: DTUSAT-2 Catalog number: 40030 Epoch time: 14268.55116835 Element set: 281 Inclination: 097.9689 deg RA of node: 163.2906 deg Eccentricity: 0.0011784 Arg of perigee: 331.9895 deg Mean anomaly: 028.0686 deg Mean motion: 14.85115338 rev/day Decay rate: 2.172e-05 rev/day^2 Epoch rev: 1448 Checksum: 316
